This is the latest recevied weather packets stored in our database for station/object W4MLN-3. If no packets are shown the sender has not sent any weather packets the latest 1 day(s).
| Time | Temp. | Humidity | Pressure | Rain* | Wind** | Luminosity | Snow |
|---|---|---|---|---|---|---|---|
| 1778025303 | 16.67° C | 50% | 1013.6 hPa | 0 mm | 1.79 m/s, 171° | - | - |
| 1778025003 | 16.67° C | 50% | 1013.7 hPa | 0 mm | 1.34 m/s, 198° | - | - |
| 1778024703 | 16.67° C | 49% | 1013.9 hPa | 0 mm | 1.34 m/s, 174° | - | - |
| 1778024403 | 17.22° C | 49% | 1014.1 hPa | 0 mm | 1.79 m/s, 189° | - | - |
| 1778024103 | 17.22° C | 48% | 1014.1 hPa | 0 mm | 2.24 m/s, 178° | - | - |
| 1778023803 | 17.22° C | 46% | 1014.1 hPa | 0 mm | 2.24 m/s, 167° | - | - |
| 1778023503 | 17.78° C | 46% | 1014.1 hPa | 0 mm | 2.24 m/s, 167° | - | - |
| 1778023203 | 17.78° C | 45% | 1013.9 hPa | 0 mm | 2.24 m/s, 163° | - | - |
| 1778022903 | 17.78° C | 45% | 1013.9 hPa | 0 mm | 2.24 m/s, 169° | - | - |
| 1778022624 | 17.78° C | 45% | 1013.9 hPa | 0 mm | 2.24 m/s, 181° | - | - |
| 1778022345 | 17.78° C | 45% | 1013.9 hPa | 0 mm | 2.24 m/s, 172° | - | - |
| 1778022003 | 17.78° C | 46% | 1013.9 hPa | 0 mm | 2.24 m/s, 162° | - | - |
| 1778021703 | 17.78° C | 45% | 1013.9 hPa | 0 mm | 2.24 m/s, 162° | - | - |
| 1778021103 | 17.78° C | 45% | 1013.8 hPa | 0 mm | 2.24 m/s, 184° | - | - |
| 1778020803 | 17.78° C | 45% | 1013.8 hPa | 0 mm | 2.24 m/s, 184° | - | - |
| 1778020503 | 17.78° C | 46% | 1013.8 hPa | 0 mm | 2.24 m/s, 182° | - | - |
| 1778020203 | 18.33° C | 45% | 1013.6 hPa | 0 mm | 3.13 m/s, 174° | - | - |
| 1778019903 | 18.33° C | 45% | 1013.5 hPa | 0 mm | 3.13 m/s, 166° | - | - |
| 1778019603 | 18.33° C | 46% | 1013.6 hPa | 0 mm | 2.68 m/s, 162° | - | - |
| 1778019324 | 18.33° C | 45% | 1013.7 hPa | 0 mm | 3.13 m/s, 171° | - | - |
| 1778019003 | 18.33° C | 45% | 1013.9 hPa | 0 mm | 3.13 m/s, 168° | - | - |
| 1778018703 | 18.89° C | 44% | 1013.9 hPa | 0 mm | 2.68 m/s, 167° | - | - |
| 1778018403 | 18.89° C | 45% | 1013.7 hPa | 0 mm | 2.68 m/s, 178° | - | - |
| 1778018126 | 18.89° C | 45% | 1013.6 hPa | 0 mm | 2.68 m/s, 187° | - | - |
| 1778017803 | 18.33° C | 45% | 1013.6 hPa | 0 mm | 3.13 m/s, 177° | - | - |
* Rain latest hour (hover to see other rain measurements)
** Current wind speed in m/s (hover to see current wind gust speed)